Location: Bogis-Bossey
(46.3500°N, 6.1667°E)
Time: 17:48:59
(UTC+00:00)

USA 238 - Pass Details

Date: 17 August 2022
Orbit: 962 x 1250 km, 63.4° (Epoch: 26 August)

Event Time Altitude Azimuth Distance (km) Brightness Sun altitude
Rises 23:14:50 0° 320° (NW) 3,949 7.5 -30.2°
Reaches altitude 10° 23:17:27 10° 321° (NW) 3,028 6.7 -30.3°
Maximum altitude 23:24:46 87° 49° (NE) 1,198 3.8 -30.4°
Enters shadow 23:25:39 73° 133° (SE) 1,249 3.8 -30.4°
